NDF3PC HECA-EDDB

Flight info

Callsign NDF3PC
Flight time N/A
Altitude 32000
Route DCT CVO L617 NOZ L551 ANTAR UN133 KOROS/N0448F340 DCT PEREN UL863 EVIVI L863 OKANA DCT TONDO DCT BEGLA DCT NAVTI DCT BODAL DCT ODLIV DCT LEGAZ DCT BEFRE T204 NUKRO NUKRO1R
Aircraft A321/M-SDE3FGHIRWY/LB1

Departure

Time N/A
Airport Cairo International Airport (HECA)

Arrival

Time 2026-05-07 14:25
Airport Berlin Brandenburg Airport (EDDB)
Time Latitude Longitude Altitude Speed Heading
2026-05-07 13:34 48.35449 16.61237 31960 ft 464 kts 320°
2026-05-07 13:34 48.40883 16.55963 31960 ft 465 kts 320°
2026-05-07 13:35 48.46308 16.50670 31958 ft 465 kts 320°
2026-05-07 13:35 48.51744 16.45358 31959 ft 465 kts 320°
2026-05-07 13:36 48.57175 16.40035 31956 ft 466 kts 320°
2026-05-07 13:36 48.62606 16.34698 31951 ft 466 kts 320°
2026-05-07 13:37 48.68036 16.29348 31947 ft 466 kts 320°
2026-05-07 13:37 48.73467 16.23980 31947 ft 466 kts 320°
2026-05-07 13:38 48.79170 16.19177 31938 ft 476 kts 333°
2026-05-07 13:38 48.85313 16.15523 31950 ft 477 kts 333°
2026-05-07 13:39 48.91471 16.11816 31959 ft 477 kts 333°
2026-05-07 13:39 48.97622 16.08095 31965 ft 477 kts 333°
2026-05-07 13:40 49.03810 16.04350 31973 ft 477 kts 333°
2026-05-07 13:40 49.09979 16.00609 31978 ft 477 kts 333°
2026-05-07 13:41 49.16146 15.96854 31975 ft 477 kts 333°
2026-05-07 13:41 49.22309 15.93086 31973 ft 477 kts 333°
2026-05-07 13:42 49.28476 15.89305 31967 ft 477 kts 333°
2026-05-07 13:42 49.34649 15.85520 31962 ft 478 kts 333°
2026-05-07 13:43 49.40817 15.81734 31955 ft 478 kts 333°
2026-05-07 13:43 49.46935 15.77789 31951 ft 474 kts 327°
2026-05-07 13:44 49.51719 15.73619 31952 ft 471 kts 324°
2026-05-07 13:44 49.57416 15.68608 31956 ft 471 kts 325°
2026-05-07 13:45 49.63110 15.63591 31958 ft 471 kts 324°
2026-05-07 13:45 49.68794 15.58553 31953 ft 471 kts 324°
2026-05-07 13:46 49.74470 15.53498 31958 ft 471 kts 324°
2026-05-07 13:46 49.80147 15.48435 31957 ft 471 kts 324°
2026-05-07 13:47 49.85820 15.43370 31950 ft 471 kts 325°
2026-05-07 13:47 49.91491 15.38290 31956 ft 471 kts 325°
2026-05-07 13:48 49.97164 15.33195 31955 ft 471 kts 325°
2026-05-07 13:48 50.02835 15.28086 31959 ft 471 kts 325°
2026-05-07 13:49 50.08504 15.22968 31956 ft 471 kts 325°
2026-05-07 13:49 50.14171 15.17843 31962 ft 471 kts 325°
2026-05-07 13:50 50.19828 15.12709 31963 ft 470 kts 325°
2026-05-07 13:50 50.25473 15.07555 31960 ft 470 kts 325°
2026-05-07 13:51 50.31106 15.02387 31962 ft 469 kts 325°
2026-05-07 13:51 50.36745 14.97231 31962 ft 469 kts 325°
2026-05-07 13:52 50.42360 14.92083 31692 ft 464 kts 325°
2026-05-07 13:52 50.45128 14.89545 31337 ft 457 kts 325°
2026-05-07 13:52 50.47947 14.87277 30984 ft 455 kts 334°
2026-05-07 13:52 50.50927 14.85645 30646 ft 453 kts 342°
2026-05-07 13:53 50.53978 14.84521 30300 ft 448 kts 344°
2026-05-07 13:53 50.56999 14.83436 29953 ft 444 kts 344°
2026-05-07 13:53 50.59996 14.82353 29561 ft 440 kts 344°
2026-05-07 13:53 50.62963 14.81273 29165 ft 435 kts 344°
2026-05-07 13:54 50.65900 14.80201 28768 ft 432 kts 344°
2026-05-07 13:54 50.68814 14.79137 28387 ft 428 kts 344°
2026-05-07 13:54 50.71697 14.78079 27993 ft 424 kts 344°
2026-05-07 13:54 50.74555 14.77026 27623 ft 420 kts 345°
2026-05-07 13:55 50.77394 14.75980 27264 ft 417 kts 345°
2026-05-07 13:55 50.80207 14.74942 26889 ft 414 kts 345°
2026-05-07 13:55 50.83002 14.73913 26529 ft 411 kts 345°
2026-05-07 13:55 50.85777 14.72889 26178 ft 408 kts 345°
2026-05-07 13:56 50.88526 14.71872 25822 ft 404 kts 345°
2026-05-07 13:56 50.91258 14.70860 25469 ft 401 kts 345°
2026-05-07 13:56 50.93967 14.69857 25131 ft 398 kts 345°
2026-05-07 13:56 50.96650 14.68832 24785 ft 395 kts 344°
2026-05-07 13:57 50.99305 14.67772 24454 ft 392 kts 344°
2026-05-07 13:57 51.01938 14.66700 24123 ft 389 kts 344°
2026-05-07 13:57 51.04554 14.65631 23795 ft 387 kts 344°
2026-05-07 13:57 51.07150 14.64575 23447 ft 384 kts 344°
2026-05-07 13:58 51.09728 14.63532 23064 ft 381 kts 344°
2026-05-07 13:58 51.12285 14.62501 22677 ft 378 kts 344°
2026-05-07 13:58 51.14823 14.61478 22284 ft 375 kts 344°
2026-05-07 13:58 51.17342 14.60460 21921 ft 372 kts 344°
2026-05-07 13:59 51.19832 14.59447 21546 ft 369 kts 344°
2026-05-07 13:59 51.22316 14.58438 21187 ft 366 kts 344°
2026-05-07 13:59 51.24779 14.57440 20825 ft 364 kts 344°
2026-05-07 13:59 51.27222 14.56447 20467 ft 361 kts 344°
2026-05-07 14:00 51.29649 14.55456 20110 ft 359 kts 344°
2026-05-07 14:00 51.32062 14.54469 19770 ft 357 kts 344°
2026-05-07 14:00 51.34461 14.53489 19417 ft 354 kts 344°
2026-05-07 14:00 51.36839 14.52519 19076 ft 352 kts 344°
2026-05-07 14:01 51.39243 14.51816 18744 ft 351 kts 353°
2026-05-07 14:01 51.41671 14.51448 18408 ft 349 kts 353°
2026-05-07 14:01 51.44086 14.51087 18047 ft 348 kts 353°
2026-05-07 14:01 51.46486 14.50725 17665 ft 346 kts 353°
2026-05-07 14:02 51.48873 14.50362 17293 ft 344 kts 353°
2026-05-07 14:02 51.51248 14.50001 16925 ft 342 kts 353°
2026-05-07 14:02 51.53611 14.49641 16561 ft 340 kts 353°
2026-05-07 14:02 51.55960 14.49279 16200 ft 338 kts 353°
2026-05-07 14:03 51.58264 14.48921 15848 ft 336 kts 353°
2026-05-07 14:03 51.60586 14.48561 15497 ft 334 kts 353°
2026-05-07 14:03 51.62894 14.48199 15147 ft 332 kts 353°
2026-05-07 14:03 51.65190 14.47839 14794 ft 331 kts 353°
2026-05-07 14:04 51.67474 14.47488 14453 ft 329 kts 353°
2026-05-07 14:04 51.69745 14.47142 14124 ft 327 kts 353°
2026-05-07 14:04 51.72004 14.46796 13782 ft 325 kts 353°
2026-05-07 14:04 51.74255 14.46443 13414 ft 325 kts 353°
2026-05-07 14:05 51.76509 14.46091 13035 ft 325 kts 353°
2026-05-07 14:05 51.78749 14.45741 12662 ft 322 kts 353°
2026-05-07 14:05 51.80970 14.45389 12299 ft 319 kts 353°
2026-05-07 14:05 51.83168 14.45046 12035 ft 314 kts 353°
2026-05-07 14:06 51.85342 14.44709 12021 ft 315 kts 353°
2026-05-07 14:06 51.87530 14.44368 12027 ft 316 kts 353°
2026-05-07 14:06 51.89715 14.44026 12029 ft 316 kts 353°
2026-05-07 14:06 51.91902 14.43684 12028 ft 316 kts 353°
2026-05-07 14:07 51.94090 14.43342 12030 ft 316 kts 353°
2026-05-07 14:07 51.96278 14.42999 12033 ft 316 kts 353°
2026-05-07 14:07 51.98464 14.42652 12032 ft 316 kts 353°
2026-05-07 14:07 52.00642 14.42210 12031 ft 314 kts 344°
2026-05-07 14:08 52.02626 14.40823 12044 ft 310 kts 323°
2026-05-07 14:08 52.04172 14.38441 11933 ft 307 kts 303°
2026-05-07 14:08 52.05102 14.35383 11720 ft 300 kts 283°
2026-05-07 14:08 52.05415 14.32059 11521 ft 299 kts 274°
2026-05-07 14:09 52.05629 14.28700 11318 ft 299 kts 275°
2026-05-07 14:09 52.05850 14.25347 11128 ft 298 kts 275°
2026-05-07 14:09 52.06073 14.22002 10918 ft 298 kts 275°
2026-05-07 14:09 52.06295 14.18664 10734 ft 297 kts 275°
2026-05-07 14:10 52.06517 14.15323 10528 ft 297 kts 275°
2026-05-07 14:10 52.06739 14.11993 10334 ft 296 kts 275°
2026-05-07 14:10 52.06958 14.08661 10135 ft 296 kts 275°
2026-05-07 14:10 52.07176 14.05350 9946 ft 292 kts 275°
2026-05-07 14:11 52.07388 14.02103 9736 ft 287 kts 275°
2026-05-07 14:11 52.07595 13.98889 9518 ft 285 kts 275°
2026-05-07 14:11 52.07800 13.95683 9309 ft 285 kts 275°
2026-05-07 14:11 52.08005 13.92477 9118 ft 285 kts 275°
2026-05-07 14:12 52.08209 13.89263 8959 ft 286 kts 275°
2026-05-07 14:12 52.08411 13.86049 8796 ft 286 kts 275°
2026-05-07 14:12 52.08611 13.82828 8643 ft 286 kts 275°
2026-05-07 14:12 52.08810 13.79615 8463 ft 285 kts 275°
2026-05-07 14:13 52.09007 13.76406 8284 ft 285 kts 275°
2026-05-07 14:13 52.09202 13.73201 8107 ft 285 kts 275°
2026-05-07 14:13 52.09398 13.70002 7930 ft 284 kts 275°
2026-05-07 14:13 52.09595 13.66813 7741 ft 283 kts 275°
2026-05-07 14:14 52.09791 13.63632 7573 ft 282 kts 275°
2026-05-07 14:14 52.10000 13.60461 7397 ft 282 kts 277°
2026-05-07 14:14 52.10236 13.57303 7222 ft 281 kts 277°
2026-05-07 14:14 52.10482 13.54158 7048 ft 280 kts 278°
2026-05-07 14:15 52.10732 13.51019 6881 ft 279 kts 278°
2026-05-07 14:15 52.10977 13.47890 6697 ft 278 kts 277°
2026-05-07 14:15 52.11215 13.44770 6531 ft 277 kts 278°
2026-05-07 14:15 52.11448 13.41681 6354 ft 272 kts 278°
2026-05-07 14:16 52.11674 13.38668 6172 ft 265 kts 278°
2026-05-07 14:16 52.11980 13.35755 6043 ft 258 kts 288°
2026-05-07 14:16 52.12738 13.33140 5987 ft 253 kts 307°
2026-05-07 14:16 52.13773 13.30902 5994 ft 242 kts 309°
2026-05-07 14:17 52.14780 13.28733 5936 ft 241 kts 309°
2026-05-07 14:17 52.15789 13.26550 5591 ft 242 kts 308°
2026-05-07 14:17 52.16802 13.24353 5223 ft 243 kts 309°
2026-05-07 14:17 52.18014 13.22472 4837 ft 241 kts 331°
2026-05-07 14:18 52.19475 13.21130 4441 ft 242 kts 333°
2026-05-07 14:18 52.20945 13.19799 4091 ft 240 kts 333°
2026-05-07 14:18 52.22376 13.18533 3983 ft 226 kts 338°
2026-05-07 14:18 52.23843 13.17877 3992 ft 216 kts 356°
2026-05-07 14:19 52.25272 13.17977 3992 ft 194 kts 12°
2026-05-07 14:19 52.26469 13.18633 3880 ft 171 kts 27°
2026-05-07 14:19 52.27415 13.19646 3764 ft 158 kts 40°
2026-05-07 14:19 52.28165 13.20947 3591 ft 156 kts 53°
2026-05-07 14:20 52.28703 13.22477 3400 ft 155 kts 66°
2026-05-07 14:20 52.29096 13.24106 3200 ft 152 kts 67°
2026-05-07 14:20 52.29473 13.25668 2999 ft 145 kts 67°
2026-05-07 14:20 52.29839 13.27189 2798 ft 143 kts 66°
2026-05-07 14:21 52.30200 13.28691 2601 ft 141 kts 67°
2026-05-07 14:21 52.30560 13.30188 2413 ft 141 kts 67°
2026-05-07 14:21 52.30918 13.31682 2215 ft 142 kts 67°
2026-05-07 14:21 52.31278 13.33182 2016 ft 141 kts 66°
2026-05-07 14:22 52.31636 13.34676 1826 ft 141 kts 67°
2026-05-07 14:22 52.31993 13.36167 1628 ft 141 kts 67°
2026-05-07 14:22 52.32351 13.37665 1431 ft 141 kts 67°
2026-05-07 14:22 52.32707 13.39154 1227 ft 141 kts 68°
2026-05-07 14:23 52.33064 13.40648 1032 ft 141 kts 68°
2026-05-07 14:23 52.33419 13.42132 822 ft 141 kts 68°
2026-05-07 14:23 52.33773 13.43615 633 ft 140 kts 68°
2026-05-07 14:23 52.34125 13.45092 430 ft 139 kts 69°
2026-05-07 14:24 52.34470 13.46536 276 ft 137 kts 69°
2026-05-07 14:24 52.34814 13.47954 169 ft 128 kts 69°
2026-05-07 14:24 52.35007 13.48785 160 ft 103 kts 69°
2026-05-07 14:24 52.35204 13.49614 159 ft 53 kts 68°
2026-05-07 14:25 52.35335 13.49934 154 ft 30 kts 41°
2026-05-07 14:25 52.35494 13.50147 154 ft 29 kts 38°
2026-05-07 14:25 52.35620 13.50384 156 ft 28 kts 66°
2026-05-07 14:25 52.35684 13.50658 157 ft 23 kts 69°
2026-05-07 14:26 52.35790 13.50801 155 ft 22 kts 348°
2026-05-07 14:26 52.35933 13.50725 155 ft 22 kts 339°
2026-05-07 14:26 52.36049 13.50672 154 ft 12 kts 24°
2026-05-07 14:26 52.36091 13.50778 156 ft 8 kts 68°
2026-05-07 14:27 52.36095 13.50793 156 ft 0 kts 66°